Showing default

BEIDOU 3M16, 43648

Orbit data source: Space-Track

BEIDOU 3M16, 43648 is a payload satellite owned by CNSA (CN) in MEO that was launched on Mon, 15 Oct 2018 UTC via a CHANG ZHENG 3B/YZ-1 launch vehicle from the Xichang Space Center, China (XSC). Payload-class satellites include a variety of spacecraft equipped with specific instruments for various scientific and technological missions. These include communications satellites like Starlink; space stations such as the ISS; scientific satellites like the Hubble; Earth observation satellites from companies like Planet Labs, Umbra, and HawkEye 360; GPS; miniature CubeSats for education and research; and military/defense satellites.

Loading next visibility...
Identifier
43648, 2018-078B
Orbit
MEO
Country
Flag of CNCN / PRC
Related business
Manufacturer
SECM
Mission
Operational Defense Navigation
Bus & Motor
BD-3M/SAR, Unknown motor
Mass
1,014 kg wet, ~850 kg dry
Launch date (UTC)
2018-10-15 (7 years ago)
Launch vehicle
CHANG ZHENG 3B/YZ-1
Launch site
Xichang Space Center, China (XSC)
Object type
Payload
Rocket body
Debris
Shape & HBR
Box + 2 Pan, 5.0 m
Radar Cross Section
8.984 m², Large (>1 m²)

Expand to show TLE details & history
Last TLE update: 19 hours ago

TLE from 19 hours ago
0 BEIDOU 3M16
1 43648U 18078B   25351.66046448 -.00000088  00000-0  00000-0 0  9990
2 43648  54.2530 306.3494 0003933  20.2564 339.7463  1.86232271 48797
Epoch: 2025-12-17T15:51Z
TLE epoch observation values (Epoch: 2025-12-17T15:51:04.131Z)
Latitude
-0.00002°
Longitude
-17.9687°
Altitude
21,517.9 km
Speed
3.781 km/s
True Right ascension
20h 25m 18s
True Declination
0° 00' 00"
Sunlit
Object was in daylight at epoch
Visualization orbit readout
Latitude
Unknown
Longitude
Unknown
Altitude
Unknown
Speed
Unknown
Apparent Right ascension
Unknown
Apparent Declination
Unknown
Sunlit
N/A
Visualization observer readout
Local Sidereal Time
09:12:28
Azimuth
Unknown
Elevation
Unknown
Doppler factor
Unknown
Orbital elements
Apogee altitude
21,538.936 km
Perigee altitude
21,516.985 km
Semi-major axis
27,906.098 km
Eccentricity
0.00039
Inclination
54.253°
RAAN
306.3494°
Arg. of periapsis
20.2564°
True anomaly
339.73069°
Mean anomaly
339.7463°
Eccentric anomaly
339.7385°
Mean motion
0.46558 °/min
Orbital period
773.23 mins
BSTAR
0
Loading maneuver chart data...
Computing Atmospheric mass density...
Loading historical data...
Loading historical data...
Loading historical data...
Loading historical data...
Loading historical data...
Loading historical data...
Loading historical data...
Other satellites on launch #78 in the year 2018 (2018-10-15 UTC)

Documentation

Showing up to 5 results
|